Location: *
(48.7670°S, 131.6180°E)
Time: 13:14:43
(UTC+00:00)

Daily predictions for brighter satellites

Satellite Brightness Start Highest point End
(mag) Time Altitude Azimuth Time Altitude Azimuth Time Altitude Azimuth
USA 234 4.4 18:51:39 10° ESE 18:56:01 37° SE 18:56:01 37° SE
Lacrosse 5 4.2 19:11:38 21° ESE 19:11:38 21° ESE 19:13:37 10° ESE
Cosmos 2074 Rocket 4.5 19:32:43 56° NE 19:32:43 56° NE 19:37:55 10° NNE
Lacrosse 4 Rocket 4.3 19:38:01 13° SE 19:38:01 13° SE 19:38:29 10° SE
Okean O Rocket 4.5 19:32:42 10° E 19:35:09 15° ESE 19:37:35 10° SSE
Cosmos 2263 Rocket 4.5 19:41:30 13° S 19:43:29 15° SE 19:46:46 10° ESE
Meteor 2-12 Rocket 4.4 19:52:09 79° ESE 19:52:11 79° E 19:58:18 10° NNE
Cosmos 2297 Rocket 2.3 19:59:37 75° E 19:59:37 75° E 20:05:06 10° NNE
Cosmos 2227 Rocket 2.5 20:03:32 58° SSE 20:04:20 65° ESE 20:09:59 10° NE
USA 267 4.5 19:58:36 10° ESE 20:04:40 38° NE 20:10:41 10° NNW
Cosmos 2219 3.3 20:06:13 69° SSE 20:06:41 74° ESE 20:12:19 10° NE
NOAA 12 4.4 20:01:40 10° NNE 20:06:57 66° ESE 20:08:24 46° S
Cosmos 1656 4.3 20:03:57 18° N 20:07:59 53° ENE 20:13:22 10° SE
CZ-2C R/B 4.2 20:04:38 10° NE 20:09:04 38° ESE 20:12:22 17° S
Cosmos 1939 Rocket 4.5 20:05:35 10° NE 20:09:23 34° ESE 20:10:33 29° SE
CZ-4B DEB 4.4 20:08:01 10° NNE 20:13:27 68° ESE 20:16:04 32° S
Cosmos 2184 Rocket 3.9 20:17:22 65° WNW 20:17:22 65° WNW 20:23:16 10° N
Cosmos 2154 Rocket 3.9 20:13:14 21° S 20:17:48 89° W 20:24:12 10° N
SMAP 3.2 20:18:59 10° NNE 20:23:40 72° ESE 20:24:47 51° S
Timation 2 Rocket 4.0 20:24:23 40° SSW 20:27:05 89° NW 20:33:37 10° NNE
Cosmos 1295 Rocket 4.4 20:21:21 13° S 20:27:09 88° W 20:33:31 10° N
Cosmos 2341 Rocket 4.4 20:26:32 10° S 20:32:57 66° ESE 20:39:20 10° NNE
H-2A R/B 3.9 20:30:43 10° NE 20:34:16 34° ESE 20:37:06 15° S
AQUARIUS 4.2 20:31:03 10° NNE 20:35:35 80° ESE 20:37:06 42° S
Cosmos 1697 Rocket 3.7 20:30:28 10° N 20:35:53 47° ENE 20:41:20 10° SE
USA 281 3.2 20:31:05 10° SSE 20:37:46 89° ENE 20:44:23 10° NNW
Cosmos 1862 Rocket 3.6 20:35:34 10° N 20:40:00 82° E 20:44:27 10° SSE
Nadezhda 1 Rocket 3.9 20:33:53 10° NNW 20:40:19 74° W 20:46:50 10° S
USA 234 3.4 20:33:50 10° ENE 20:40:22 71° SSE 20:43:22 35° SW
Cosmos 2327 Rocket 4.4 20:36:02 17° SSW 20:40:58 66° W 20:47:17 10° N
Cosmos 2369 Rocket 4.3 20:46:48 11° S 20:46:48 11° S 20:47:35 10° S
NOAA 6 4.0 20:40:26 10° N 20:45:32 62° WNW 20:46:59 44° SW
CZ-4 R/B 3.8 20:44:47 10° ENE 20:48:03 22° ESE 20:51:18 10° SSE
SL-8 R/B 3.6 20:47:19 59° W 20:48:14 88° N 20:53:08 10° E
MOS 1 Rocket 3.1 20:44:18 10° S 20:49:11 80° WSW 20:53:44 10° NNW
Radarsat Rocket 3.8 20:43:26 10° N 20:49:31 71° WNW 20:53:43 20° SSW
Cosmos 2082 3.8 20:46:26 26° SSW 20:49:45 75° ESE 20:55:24 10° NNE
Meteor 2-4 Rocket 4.3 20:44:11 10° N 20:50:03 62° E 20:55:57 10° SSE
H-2A R/B 3.2 20:45:26 10° NE 20:50:04 39° ESE 20:54:42 10° S
Lacrosse 5 2.0 20:50:50 42° SW 20:52:32 72° SSE 20:57:40 10° ENE
Cosmos 1733 Rocket 3.4 20:53:24 45° NW 20:53:24 45° NW 20:56:56 10° N
Cosmos 1975 2.7 20:53:36 54° SSW 20:54:26 77° W 20:58:26 10° N
BREEZE-M R/B 4.5 20:54:11 39° WNW 20:55:55 85° NNE 21:10:47 10° E
deb Chang Zheng 4 4.3 20:52:19 10° N 20:55:30 36° NW 20:55:30 36° NW
Cosmos 962 Rocket 4.4 20:52:50 10° SSW 20:59:08 76° W 21:05:17 10° N
FengYun 1-2 T 4.2 20:53:56 10° N 20:59:25 64° WNW 21:03:42 17° SSW
ATLAS CENTAUR R/B 3.8 21:00:42 11° S 21:02:14 13° SSE 21:04:16 10° SE
Okean 1-7 4.0 20:58:43 10° NNE 21:02:52 49° E 21:07:03 10° SSE
IRAS Rocket 4.3 20:59:23 10° SSE 21:05:07 87° ENE 21:10:49 10° NNW
Cosmos 2251 Rocket 3.5 21:02:20 23° SSW 21:05:49 80° WNW 21:11:09 10° NNE
Cosmos 1980 Rocket 3.4 21:02:02 10° N 21:07:24 44° ENE 21:12:49 10° SE
Okean O Rocket 1.6 21:06:20 10° NNE 21:10:51 86° WNW 21:15:01 12° SSW
Lacrosse 4 Rocket 3.1 21:14:21 19° SSW 21:14:21 19° SSW 21:16:40 10° S
CORIOLIS 4.5 21:15:26 10° N 21:20:42 46° W 21:25:27 13° SSW
Iridium 4 Rocket 3.7 21:16:53 10° NNW 21:22:13 63° W 21:28:02 10° S
Aureole 2 Rocket 2.1 21:23:21 41° NNW 21:23:21 41° NNW 21:25:11 10° N
Cosmos 2369 3.9 21:17:55 10° NNW 21:23:36 78° ENE 21:29:22 10° SSE
Cosmos 2181 Rocket 4.0 21:18:35 10° N 21:24:59 87° W 21:31:21 10° S
Cosmos 2218 Rocket 3.9 21:18:50 10° S 21:25:07 82° W 21:31:22 10° N
Cosmos 2263 Rocket 2.7 21:23:12 10° SSW 21:28:42 58° ESE 21:34:12 10° NE
Cosmos 2360 4.2 21:25:09 10° NNW 21:30:52 83° WSW 21:36:41 10° SSE
BREEZE-M DEB (TANK) 2.8 21:31:09 19° NW 21:32:29 47° NNE 21:35:31 10° ESE
Cosmos 1805 4.3 21:31:31 10° S 21:35:25 48° ESE 21:39:16 10° NNE
CZ-4C R/B 3.0 21:32:40 10° S 21:35:47 46° WSW 21:38:53 10° NW
YAOGAN 1 3.2 21:31:33 10° NNE 21:35:49 57° ESE 21:40:11 10° S
Cosmos 1378 3.2 21:32:16 10° N 21:35:59 84° ENE 21:39:48 10° S
Cosmos 1140 Rocket 3.6 21:32:54 10° SSW 21:38:08 78° ESE 21:43:19 10° NNE
CZ-2D R/B 3.6 21:36:19 10° N 21:40:05 45° W 21:43:29 12° SSW
Cosmos 2297 Rocket 3.5 21:41:28 18° W 21:42:48 20° W 21:46:44 10° NW
Cosmos 614 Rocket 4.3 21:40:02 15° SW 21:44:08 46° WNW 21:48:59 10° N
Cosmos 1939 Rocket 4.0 21:40:48 10° NNW 21:44:21 26° W 21:46:26 18° SW
Sich 1 Rocket 4.3 21:39:46 10° S 21:44:25 59° ESE 21:48:59 10° NNE
NOSS 3-3 (A) 3.9 21:38:52 15° SW 21:44:35 85° NW 21:50:24 10° NE
NOSS 3-3 (C) 3.9 21:38:59 14° SW 21:44:43 86° NW 21:50:31 10° NE
Cosmos 2366 rocket 4.0 21:39:14 10° SSW 21:45:22 61° W 21:51:26 10° N
Cosmos 1356 Rocket 3.8 21:42:10 12° SSW 21:45:58 43° W 21:50:02 10° NNW
Feng Yun 1-1 Rocket 4.2 21:41:26 10° N 21:47:07 77° WNW 21:52:42 10° SSW
CZ-4B R/B 3.6 21:42:34 10° NNW 21:47:31 38° W 21:52:34 10° SSW
Cosmos 2227 Rocket 3.3 21:45:24 18° WSW 21:47:53 23° WNW 21:52:16 10° NNW
USA 267 3.3 21:41:26 10° SE 21:48:05 82° SSW 21:54:41 10° WNW
CZ-2C R/B 3.7 21:44:53 10° NNW 21:49:04 29° W 21:53:23 10° SSW
Cosmos 2219 4.5 21:48:10 17° WSW 21:50:13 20° W 21:54:12 10° NW
Cosmos 1908 Rocket 4.3 21:47:05 10° SSW 21:51:12 35° W 21:55:19 10° NNW
Cosmos 1656 4.4 21:47:00 10° WNW 21:51:55 31° SW 21:56:48 10° SSE
COSMO-SKYMED 1 2.6 21:48:00 10° S 21:52:23 62° WSW 21:56:43 10° NNW
Cosmos 371 Rocket 3.6 21:48:27 10° NW 21:53:05 44° WSW 21:57:48 10° SSE
Cosmos 2242 Rocket 3.9 21:53:16 10° NNW 21:57:33 46° WSW 22:01:54 10° S
Okean 3 3.5 21:57:10 10° NNW 22:01:30 75° W 22:05:54 10° S
DEBRIS 1.9 22:01:17 17° W 22:02:41 60° NNW 22:05:18 10° ENE
HJ-1C 3.5 22:00:17 10° NNE 22:03:40 83° ESE 22:07:07 10° S
Genesis I 3.6 22:01:11 10° NNW 22:05:05 66° NE 22:08:57 10° SE
Landsat 5 4.4 22:04:40 10° S 22:08:13 26° WSW 22:11:37 10° WNW
CZ-4B R/B 1.4 22:05:04 10° SSE 22:08:29 86° ENE 22:11:46 10° NNW
H-2A R/B 2.3 22:04:34 10° S 22:09:06 57° WSW 22:13:33 10° NNW
H-2A R/B 3.5 22:06:36 10° NNW 22:09:48 24° W 22:13:08 10° SW
Cosmos 332 Rocket 4.1 22:10:34 10° NW 22:15:18 45° WSW 22:20:07 10° SSE
Cosmos 1624 Rocket 4.2 22:11:55 10° NNW 22:17:10 79° ENE 22:22:31 10° SSE
Cosmos 1697 Rocket 3.3 22:14:47 10° WNW 22:20:01 36° SW 22:25:16 10° SSE
USA 281 4.1 22:16:16 10° S 22:21:34 26° SW 22:26:51 10° W
CZ-4 R/B 1.9 22:18:46 10° N 22:22:48 43° W 22:26:49 10° SSW
USA 234 3.8 22:17:18 10° NNE 22:23:36 47° NW 22:29:58 10° WSW
NOSS 3-2 (A) 4.1 22:15:08 10° NW 22:23:40 77° SW 22:31:07 10° SE
Cosmos 1300 Rocket 3.7 22:20:24 10° SSW 22:24:53 60° W 22:29:17 10° N
OBJECT-B 2.4 22:22:00 10° NE 22:25:03 36° ESE 22:28:08 10° S
ARGOS 3.5 22:23:40 10° N 22:28:54 49° W 22:34:12 10° SSW
NOSS 3-2 (C) 4.3 22:20:24 10° NW 22:28:58 83° NE 22:36:30 10° SE
H-2A R/B 2.8 22:25:11 10° NNW 22:29:35 31° W 22:34:01 10° SSW
SL-8 R/B 4.2 22:25:56 10° W 22:30:42 57° NNW 22:35:28 10° ENE
Okean 2 Rocket 3.1 22:26:23 10° SSW 22:30:52 69° W 22:35:17 10° N
Lacrosse 5 rocket 3.4 22:27:36 10° NNW 22:31:44 37° NE 22:36:04 10° ESE
Lacrosse 5 3.0 22:30:43 10° WSW 22:35:12 30° NW 22:39:39 10° N
Cosmos 220 Rocket 4.1 22:31:54 10° NNW 22:36:19 89° ENE 22:40:50 10° SSE
Cosmos 2322 Rocket 3.4 22:32:19 10° N 22:37:44 50° ENE 22:43:12 10° SE
